カタログに戻る

FALCON 9 R/B

運用中HEO
NORAD 58964·ROCKET BODY·🇺🇸 United States

打ち上げ Feb 15, 2024 から Cape Canaveral Space Force Station

Loading…

次のパス (今後24時間)

TLE

古いSource: Space-Track

元期: Feb 15, 2024, 06:40 UTC

1 58964U 24030B   24046.27792824 -.00014702  00000-0  00000-0 0  9993
2 58964  28.5100  65.0800 9704700 239.9600   5.0000  0.08200507    02

AllMySatでFALCON 9 R/Bをリアルタイム追跡

Download on the App Store